Regional Weather Roundup
Issued by NWS

Home | Current Version | Previous Version | Text Only | Print | Product List | Glossary On
Versions: 1 2 3 4 5 6 7 8 9 10 11 12 13 14 15 16 17 18 19 20 21 22 23 24 25 26 27 28 29 30 31 32 33 34 35 36 37 38 39 40 41 42 43 44 45 46 47 48 49 50
000
ASUS43 KDTX 310510
RWRMI
MICHIGAN HOURLY REGIONAL WEATHER ROUNDUP
NATIONAL WEATHER SERVICE DETROIT/PONTIAC MI
100 AM EDT FRI OCT 31 2014

NOTE: "FAIR" INDICATES FEW OR NO CLOUDS BELOW 12,000 FEET WITH NO
SIGNIFICANT WEATHER AND/OR OBSTRUCTION TO VISIBILITY.

MIZ047>049-052>055-059>063-066>070-074>076-081>083-310600-
SOUTHEAST LOWER MICHIGAN

CITY           SKY/WX    TMP DP  RH WIND       PRES   REMARKS
ADRIAN         CLOUDY    43  36  76 W3        30.01F
ALMA           CLOUDY    43  38  82 S5        29.96F
ANN ARBOR      CLOUDY    44  35  70 SW7       29.99F
BAD AXE        CLOUDY    43  41  92 SW7       29.95F
CARO           CLOUDY    42  39  89 CALM      29.95F
DETROIT CITY   CLOUDY    49  35  58 SW9       30.00F
DETROIT        CLOUDY    46  37  71 S8        30.01F
FLINT          CLOUDY    46  37  71 SW6       29.98F
GROSSE ILE     CLOUDY    46  37  71 SW3       29.99F
HILLSDALE      CLOUDY    44  38  78 S3        29.99F
HOWELL         CLOUDY    43  36  75 S5        29.98F

CITY           SKY/WX    TMP DP  RH WIND       PRES   REMARKS
JACKSON        CLOUDY    44  36  73 SW5       29.98F
LAMBERTVILLE   CLOUDY    46  34  61 SW3       30.01F
LANSING        CLOUDY    42  36  79 SW5       29.98F
LAPEER         CLOUDY    44  37  78 SW5       29.97F
MASON          CLOUDY    43  37  77 CALM      29.98F
MONROE         CLOUDY    46  37  71 SW5       29.99F
MT. CLEMENS    CLOUDY    47  38  71 SW7       29.97F
PONTIAC        CLOUDY    45  35  68 SW6       29.97F
PORT HOPE        N/A     44  40  85 VRB5      29.93F
PORT HURON     CLOUDY    43  39  87 S3        29.98F
TRI CITIES     CLOUDY    44  38  79 SW7       29.97F
TROY           CLOUDY    47  35  62 SW5       30.00F
SAGINAW HB     CLOUDY    43  37  81 SW5       29.96F
$$
MIZ043>046-050>051-056>058-064>065-071>073-077>080-310600-
SOUTHWEST LOWER MICHIGAN

CITY           SKY/WX    TMP DP  RH WIND       PRES   REMARKS
BATTLE CREEK   CLOUDY    45  36  70 SW7       29.99F
BENTON HARBOR  CLOUDY    49  36  61 W10       30.00F
BIG RAPIDS     CLOUDY    43  40  91 SW3       29.93F
COLDWATER      CLOUDY    45  38  75 SW3       30.00S
FREMONT        CLOUDY    44  38  82 SW5       29.95F
HOLLAND        CLOUDY    50  38  63 W7        29.98F
GRAND RAPIDS   CLOUDY    45  39  79 SW6       29.97F
IONIA          CLOUDY    44  38  78 SW5       29.96F
KALAMAZOO      CLOUDY    45  36  70 SW6       29.99F
LUDINGTON      LGT RAIN  46  38  74 NW9G21    29.95S
MARSHALL       CLOUDY    43  36  74 SW3       29.99S
MOUNT PLEASANT CLOUDY    43  37  79 S5        29.94F
MUSKEGON       CLOUDY    50  37  61 W13G21    29.96F
SOUTH HAVEN    CLOUDY    51  38  60 NW7       29.99S
$$
MIZ016>042-310600-
NORTHERN LOWER MICHIGAN

CITY           SKY/WX    TMP DP  RH WIND       PRES   REMARKS
ALPENA         LGT RAIN  41  40  96 SW3       29.91F
BEAVER ISLAND  LGT RAIN  41  39  92 W7        29.92F
BELLAIRE       MIX PCPN  42  40  93 CALM      29.92F
CADILLAC       CLOUDY    39  37  93 SW3       29.91F
CHARLEVOIX     LGT RAIN  42  38  88 NW7       29.94S
FRANKFORT      DRIZZLE   42  38  84 NW6       29.94F
GAYLORD        LGT RAIN  39  37  92 VRB3      29.90S
GRAYLING       CLOUDY    39  38  97 W3        29.91F
HARBOR SPRINGS RAIN      40  38  93 NW3       29.91F
HOUGHTON LAKE  CLOUDY    42  38  85 W7        29.92F
MANISTEE       CLOUDY    45  36  70 NW8G17    29.95S
OSCODA         LGT RAIN  42  41  99 SW3       29.93S
PELLSTON       LGT RAIN  40  39  97 CALM      29.91F
ROGERS CITY    CLOUDY    41  41 100 CALM      29.91F
TRAVERSE CITY  LGT RAIN  43  38  82 W6        29.92F
$$
MIZ007>008-015-310600-
EASTERN UPPER MICHIGAN

CITY           SKY/WX    TMP DP  RH WIND       PRES   REMARKS
KINROSS        CLOUDY    39  37  93 NW5       29.90S
MACKINAC ISLAN LGT RAIN  39  39  97 NW5       29.90F
NEWBERRY       LGT RAIN  36  35  97 N9        29.92S WCI  29
S. S. MARIE    LGT RAIN  36  33  89 N9        29.91R WCI  29
MUNISING         N/A     37  34  89 NW13      29.96R WCI  29
$$
MIZ004>006-011>014-085-310600-
CENTRAL UPPER MICHIGAN

CITY           SKY/WX    TMP DP  RH WIND       PRES   REMARKS
MANISTIQUE     LGT RAIN  38  37  94 N10       29.93S WCI  31
ESCANABA       CLOUDY    37  30  75 NW13G20   29.96R WCI  29
MENOMINEE      MOCLDY    39  30  70 N14G22    29.98S WCI  31
SAWYER-GWINN   LGT SNOW  33  32  96 N25G31    29.98R WCI  20
$$
MIZ001>003-009>011-084-310600-
WESTERN UPPER MICHIGAN

CITY           SKY/WX    TMP DP  RH WIND       PRES   REMARKS
IRON MOUNTAIN  CLOUDY    36  31  82 N12       30.00R WCI  28
HOUGHTON       LGT SNOW  32  27  81 N20G36    30.12R WCI  20
COPPER HARBOR    N/A     37  32  82 E35G43    30.13R WCI  24
IRONWOOD       CLOUDY    30  27  86 N13G25    30.19R WCI  20
$$

ABBREVIATIONS USED IN REMARKS
   TC - TEMPERATURE IN CELSIUS
  WCI - WIND CHILL INDEX
   HX - HEAT INDEX
  VSB - VISIBILITY




USA.gov is the U.S. government's official web portal to all federal, state and local government web resources and services.